Location: Southwest Harbor
(44.2798°N, 68.3250°W)
Time: 21:13:14
(UTC-04:00)

ISS - Visible Passes

Search period start: 03 October 2023 00:00
Search period end: 13 October 2023 00:00
Orbit: 414 x 421 km, 51.6° (Epoch: 03 October)

Date Brightness Start Highest point End Pass type
(mag) Time Alt. Az. Time Alt. Az. Time Alt. Az.
03 Oct -1.5 19:32:34 10° W 19:35:10 21° SW 19:37:47 10° S visible
04 Oct -2.2 18:44:04 10° WNW 18:47:09 34° SW 18:50:13 10° SSE visible
06 Oct -0.8 18:45:23 10° W 18:47:07 14° SW 18:48:53 10° SSW visible
